• In United States
  • List of Countries
  • For 7 days
  • Water Temperature
  • Satellite Maps
  • Weather Map
  • Weather Widgets
  • user-avatar
    Login

    Hourly Weather Namibe

    Today, 20 June, Wednesday

    Time Temperature Precipitation Wind Pressure Humidity
    00:00 +23°C° 0 mm 1 mps 761 mmHg 75%
    01:00 +23°C° 0 mm 1 mps 761 mmHg 78%
    02:00 +22°C° 0 mm 1 mps 761 mmHg 78%
    03:00 +21°C° 0 mm 2 mps 760 mmHg 78%
    04:00 +21°C° 0 mm 2 mps 760 mmHg 78%
    05:00 +21°C° 0 mm 2 mps 760 mmHg 77%
    06:00 +21°C° 0 mm 2 mps 760 mmHg 76%
    07:00 +23°C° 0 mm 2 mps 760 mmHg 73%
    08:00 +25°C° 0 mm 2 mps 760 mmHg 62%
    09:00 +27°C° 0 mm 1 mps 761 mmHg 52%
    10:00 +29°C° 0 mm 1 mps 761 mmHg 41%
    11:00 +30°C° 0 mm 2 mps 760 mmHg 38%
    12:00 +33°C° 0 mm 3 mps 760 mmHg 35%
    13:00 +33°C° 0 mm 4 mps 760 mmHg 37%
    14:00 +32°C° 0 mm 4 mps 759 mmHg 43%
    15:00 +30°C° 0 mm 4 mps 759 mmHg 49%
    16:00 +29°C° 0 mm 4 mps 759 mmHg 55%
    17:00 +27°C° 0 mm 3 mps 759 mmHg 61%
    18:00 +26°C° 0 mm 3 mps 760 mmHg 67%
    19:00 +24°C° 0 mm 2 mps 760 mmHg 73%
    20:00 +24°C° 0 mm 2 mps 761 mmHg 74%
    21:00 +24°C° 0 mm 1 mps 761 mmHg 75%
    22:00 +24°C° 0 mm 1 mps 762 mmHg 76%
    23:00 +23°C° 0 mm 1 mps 762 mmHg 76%

    Tomorrow, 21 June, Thursday

    Time Temperature Precipitation Wind Pressure Humidity
    00:00 +23°C° 0 mm 1 mps 762 mmHg 76%
    01:00 +23°C° 0 mm 1 mps 762 mmHg 76%
    02:00 +23°C° 0 mm 1 mps 762 mmHg 78%
    03:00 +22°C° 0 mm 1 mps 761 mmHg 79%
    04:00 +22°C° 0 mm 1 mps 761 mmHg 81%
    05:00 +22°C° 0 mm 1 mps 761 mmHg 82%
    06:00 +22°C° 0 mm 1 mps 762 mmHg 83%
    07:00 +21°C° 0 mm 1 mps 762 mmHg 85%
    08:00 +23°C° 0 mm 1 mps 762 mmHg 74%
    09:00 +25°C° 0 mm 1 mps 762 mmHg 64%
    10:00 +27°C° 0 mm 1 mps 762 mmHg 53%
    11:00 +29°C° 0 mm 2 mps 762 mmHg 49%
    12:00 +30°C° 0 mm 3 mps 761 mmHg 44%
    13:00 +33°C° 0 mm 4 mps 761 mmHg 39%
    14:00 +32°C° 0 mm 4 mps 761 mmHg 44%
    15:00 +30°C° 0 mm 4 mps 760 mmHg 48%
    16:00 +29°C° 0 mm 4 mps 760 mmHg 53%
    17:00 +28°C° 0 mm 4 mps 760 mmHg 58%
    18:00 +26°C° 0 mm 3 mps 761 mmHg 63%
    19:00 +25°C° 0 mm 3 mps 761 mmHg 68%
    20:00 +25°C° 0 mm 2 mps 761 mmHg 69%
    21:00 +24°C° 0 mm 2 mps 762 mmHg 69%
    22:00 +24°C° 0 mm 2 mps 762 mmHg 69%
    23:00 +24°C° 0 mm 2 mps 762 mmHg 69%

    Day after tomorrow, 22 June, Friday

    Time Temperature Precipitation Wind Pressure Humidity
    00:00 +24°C° 0 mm 2 mps 762 mmHg 68%
    01:00 +24°C° 0 mm 2 mps 762 mmHg 67%
    02:00 +24°C° 0 mm 2 mps 761 mmHg 66%
    03:00 +24°C° 0 mm 2 mps 761 mmHg 65%
    04:00 +24°C° 0 mm 2 mps 761 mmHg 64%
    05:00 +24°C° 0 mm 2 mps 761 mmHg 63%
    06:00 +24°C° 0 mm 1 mps 761 mmHg 62%
    07:00 +24°C° 0 mm 1 mps 761 mmHg 60%
    08:00 +27°C° 0 mm 1 mps 761 mmHg 50%
    09:00 +29°C° 0 mm 2 mps 761 mmHg 40%
    10:00 +32°C° 0 mm 2 mps 762 mmHg 30%
    11:00 +34°C° 0 mm 2 mps 761 mmHg 28%
    12:00 +35°C° 0 mm 3 mps 761 mmHg 26%
    13:00 +37°C° 0 mm 4 mps 760 mmHg 24%
    14:00 +35°C° 0 mm 4 mps 760 mmHg 31%
    15:00 +34°C° 0 mm 4 mps 759 mmHg 37%
    16:00 +32°C° 0 mm 4 mps 759 mmHg 44%
    17:00 +29°C° 0 mm 4 mps 759 mmHg 49%
    18:00 +28°C° 0 mm 3 mps 760 mmHg 55%
    19:00 +26°C° 0 mm 3 mps 760 mmHg 61%
    20:00 +26°C° 0 mm 2 mps 761 mmHg 61%
    21:00 +26°C° 0 mm 2 mps 761 mmHg 61%
    22:00 +26°C° 0 mm 2 mps 762 mmHg 61%
    23:00 +26°C° 0 mm 2 mps 761 mmHg 60%

    23 June, Saturday

    Time Temperature Precipitation Wind Pressure Humidity
    00:00 +26°C° 0 mm 2 mps 761 mmHg 59%
    01:00 +25°C° 0 mm 2 mps 761 mmHg 57%
    02:00 +25°C° 0 mm 2 mps 761 mmHg 57%
    03:00 +25°C° 0 mm 2 mps 760 mmHg 57%
    04:00 +25°C° 0 mm 2 mps 760 mmHg 57%
    05:00 +25°C° 0 mm 2 mps 760 mmHg 55%
    06:00 +25°C° 0 mm 2 mps 760 mmHg 53%
    07:00 +25°C° 0 mm 2 mps 760 mmHg 51%
    08:00 +28°C° 0 mm 2 mps 760 mmHg 40%
    09:00 +31°C° 0 mm 3 mps 761 mmHg 30%
    10:00 +35°C° 0 mm 3 mps 761 mmHg 20%
    11:00 +36°C° 0 mm 3 mps 760 mmHg 18%
    12:00 +38°C° 0 mm 4 mps 759 mmHg 17%
    13:00 +40°C° 0 mm 4 mps 759 mmHg 15%
    14:00 +38°C° 0 mm 4 mps 758 mmHg 20%
    15:00 +37°C° 0 mm 5 mps 758 mmHg 24%
    16:00 +35°C° 0 mm 5 mps 757 mmHg 29%
    17:00 +33°C° 0 mm 4 mps 758 mmHg 35%
    18:00 +30°C° 0 mm 4 mps 758 mmHg 41%
    19:00 +28°C° 0 mm 3 mps 758 mmHg 47%
    20:00 +28°C° 0 mm 2 mps 759 mmHg 48%
    21:00 +27°C° 0 mm 2 mps 759 mmHg 49%
    22:00 +27°C° 0 mm 1 mps 759 mmHg 50%
    23:00 +27°C° 0 mm 1 mps 759 mmHg 50%

    24 June, Sunday

    Time Temperature Precipitation Wind Pressure Humidity
    00:00 +26°C° 0 mm 1 mps 759 mmHg 49%
    01:00 +26°C° 0 mm 2 mps 758 mmHg 48%
    02:00 +26°C° 0 mm 2 mps 758 mmHg 44%
    03:00 +27°C° 0 mm 2 mps 758 mmHg 40%
    04:00 +27°C° 0 mm 2 mps 758 mmHg 36%
    05:00 +26°C° 0 mm 2 mps 758 mmHg 33%
    06:00 +26°C° 0 mm 2 mps 758 mmHg 31%
    07:00 +26°C° 0 mm 2 mps 759 mmHg 28%
    08:00 +28°C° 0 mm 2 mps 759 mmHg 24%
    09:00 +31°C° 0 mm 2 mps 759 mmHg 21%
    10:00 +34°C° 0 mm 3 mps 759 mmHg 18%
    11:00 +36°C° 0 mm 3 mps 759 mmHg 18%
    12:00 +37°C° 0 mm 3 mps 758 mmHg 19%
    13:00 +38°C° 0 mm 4 mps 757 mmHg 19%
    14:00 +36°C° 0 mm 4 mps 757 mmHg 24%
    15:00 +35°C° 0 mm 4 mps 757 mmHg 30%
    16:00 +33°C° 0 mm 4 mps 757 mmHg 35%
    17:00 +32°C° 0 mm 4 mps 757 mmHg 42%
    18:00 +29°C° 0 mm 3 mps 758 mmHg 49%
    19:00 +27°C° 0 mm 2 mps 759 mmHg 57%
    20:00 +26°C° 0 mm 2 mps 759 mmHg 59%
    21:00 +26°C° 0 mm 1 mps 759 mmHg 62%
    22:00 +25°C° 0 mm 1 mps 760 mmHg 65%
    23:00 +25°C° 0 mm 1 mps 760 mmHg 66%

    25 June, Monday

    Time Temperature Precipitation Wind Pressure Humidity
    00:00 +25°C° 0 mm 1 mps 760 mmHg 68%
    01:00 +24°C° 0 mm 1 mps 760 mmHg 69%
    02:00 +24°C° 0 mm 1 mps 759 mmHg 70%
    03:00 +23°C° 0 mm 1 mps 759 mmHg 71%
    04:00 +23°C° 0 mm 1 mps 759 mmHg 71%
    05:00 +23°C° 0 mm 1 mps 759 mmHg 71%
    06:00 +23°C° 0 mm 1 mps 760 mmHg 70%
    07:00 +23°C° 0 mm 2 mps 760 mmHg 69%
    08:00 +25°C° 0 mm 2 mps 760 mmHg 59%
    09:00 +28°C° 0 mm 2 mps 760 mmHg 48%
    10:00 +30°C° 0 mm 2 mps 760 mmHg 38%
    11:00 +31°C° 0 mm 2 mps 760 mmHg 37%
    12:00 +33°C° 0 mm 3 mps 759 mmHg 36%
    13:00 +34°C° 0 mm 4 mps 758 mmHg 35%
    14:00 +33°C° 0 mm 4 mps 758 mmHg 40%
    15:00 +32°C° 0 mm 4 mps 757 mmHg 45%
    16:00 +30°C° 0 mm 4 mps 757 mmHg 51%
    17:00 +28°C° 0 mm 4 mps 757 mmHg 56%
    18:00 +27°C° 0 mm 3 mps 758 mmHg 62%
    19:00 +25°C° 0 mm 3 mps 759 mmHg 68%
    20:00 +25°C° 0 mm 3 mps 759 mmHg 70%
    21:00 +24°C° 0 mm 2 mps 759 mmHg 71%
    22:00 +24°C° 0 mm 2 mps 760 mmHg 72%
    23:00 +24°C° 0 mm 2 mps 759 mmHg 72%
    Show more